Weather History for Agadir Al Massira, Morocco

Change the Weather History Date:

Sunday, December 1, 2013

  Actual Average Record
Temperature  
Mean Temperature 60 °F -  
Max Temperature 69 °F - - ()
Min Temperature 52 °F - - ()
Degree Days  
Heating Degree Days 4    
Growing Degree Days 10 (Base 50)    
Moisture  
Dew Point 52 °F    
Average Humidity 74    
Maximum Humidity 89    
Minimum Humidity 41    
Precipitation  
Precipitation 0.00 in - - ()
Sea Level Pressure  
Sea Level Pressure 29.82 in    
Wind  
Wind Speed 3 mph ()    
Max Wind Speed 14 mph    
Max Gust Speed -    
Visibility 6.1 miles    
Events      
T = Trace of Precipitation, MM = Missing Value Source: Averaged Metar Reports

Daily Weather History Graph

Daily Weather History Graph

Search for Another Location

Airport:

Trip Planner

Search our weather history database for the weather conditions in past years. The results will help you decide how hot, cold, wet, or windy it might be!

Date:

Astronomy

Dec. 01, 2013 Rise Set
Actual Time 7:16 AM WET 5:36 PM WET
Civil Twilight 6:50 AM WET 6:02 PM WET
Nautical Twilight 6:20 AM WET 6:32 PM WET
Astronomical Twilight 5:51 AM WET 7:01 PM WET
Moon 5:25 AM WET (12/1) 4:30 PM WET (12/1)
Length of Visible Light 11h 12m
Length of Day
10h 20m
Waning Crescent, 3% of the Moon is Illuminated
Dec 1
Waning Crescent
Dec 3
New
Dec 9
First Quarter
Dec 17
Full
Dec 25
Last Quarter

Hourly Weather History & Observations

Time (WET) Temp. Dew Point Humidity Pressure Visibility Wind Dir Wind Speed Gust Speed Precip Events Conditions
12:00 AM 56 °F 54 °F 89% 29.91 in 5 mi East 2.3 mph - -   Partly Cloudy
12:00 AM 57.2 °F 53.6 °F 88% 29.89 in 5.0 mi East 3.5 mph - N/A   Scattered Clouds
1:00 AM 59.0 °F 55.4 °F 88% 29.89 in 6.2 mi Calm Calm - N/A   Mostly Cloudy
2:00 AM 59.0 °F 55.4 °F 88% 29.89 in 6.2 mi Calm Calm - N/A   Scattered Clouds
3:00 AM 59 °F 55 °F 82% 29.88 in 6 mi SE 4.6 mph - -   Partly Cloudy
3:00 AM 59.0 °F 55.4 °F 88% 29.86 in 6.2 mi SE 4.6 mph - N/A   Scattered Clouds
4:00 AM 55.4 °F 51.8 °F 88% 29.86 in 6.2 mi Calm Calm - N/A   Scattered Clouds
5:00 AM 55.4 °F 51.8 °F 88% 29.86 in 6.2 mi Calm Calm - N/A   Scattered Clouds
6:00 AM 55 °F 51 °F 81% 29.86 in 6 mi Calm Calm - -   Partly Cloudy
6:00 AM 55.4 °F 51.8 °F 88% 29.83 in 6.2 mi Calm Calm - N/A   Scattered Clouds
7:00 AM 53.6 °F 50.0 °F 88% 29.83 in 6.2 mi Calm Calm - N/A   Scattered Clouds
8:00 AM 55.4 °F 51.8 °F 88% 29.86 in 6.2 mi Calm Calm - N/A   Mostly Cloudy
9:00 AM 56 °F 52 °F 80% 29.87 in 6 mi Calm Calm - -   Mostly Cloudy
9:00 AM 57.2 °F 51.8 °F 82% 29.86 in 6.2 mi Calm Calm - N/A   Mostly Cloudy
10:00 AM 60.8 °F 53.6 °F 77% 29.86 in 6.2 mi Calm Calm - N/A   Mostly Cloudy
11:00 AM 64.4 °F 53.6 °F 68% 29.86 in 6.2 mi Calm Calm - N/A   Scattered Clouds
12:00 PM 66 °F 53 °F 52% 29.84 in 6 mi Calm Calm - -   Partly Cloudy
12:00 PM 66.2 °F 51.8 °F 60% 29.83 in 6.2 mi Calm Calm - N/A   Scattered Clouds
1:00 PM 68.0 °F 50.0 °F 52% 29.80 in - WNW 8.1 mph - N/A   Clear
2:00 PM 68.0 °F 51.8 °F 56% 29.74 in - West 13.8 mph - N/A   Clear
3:00 PM 66 °F 48 °F 41% 29.74 in 6 mi SW 12.7 mph - -   Clear
3:00 PM 66.2 °F 48.2 °F 52% 29.74 in - SW 12.7 mph - N/A   Clear
4:00 PM 66.2 °F 50.0 °F 56% 29.71 in - SW 9.2 mph - N/A   Clear
6:00 PM 61 °F 51 °F 61% 29.72 in 6 mi South 11.5 mph - -   Partly Cloudy
6:00 PM 60.8 °F 50.0 °F 68% 29.71 in 6.2 mi South 11.5 mph - N/A   Scattered Clouds
7:00 PM 59.0 °F 51.8 °F 77% 29.74 in 6.2 mi South 10.4 mph - N/A   Scattered Clouds
8:00 PM 59.0 °F 50.0 °F 72% 29.77 in 6.2 mi SSE 6.9 mph - N/A   Mostly Cloudy
9:00 PM 59 °F 51 °F 66% 29.82 in 6 mi South 6.9 mph - -   Mostly Cloudy
9:00 PM 59.0 °F 50.0 °F 72% 29.80 in 6.2 mi South 6.9 mph - N/A   Mostly Cloudy
10:00 PM 59.0 °F 50.0 °F 72% 29.83 in 6.2 mi SE 5.8 mph - N/A   Scattered Clouds
11:00 PM 59.0 °F 50.0 °F 72% 29.86 in 6.2 mi SSE 3.5 mph - N/A   Scattered Clouds